[[{"header":{"parameterUnit":"m.s-1","parameterCategory":1,"la1":30.2991,"la2":30.254,"lo1":-89.0895,"lo2":-89.0444,"dy":0.0017,"dx":0.0017,"nx":28,"ny":28,"refTime":"2025-09-02T21:00:00:Z","depth":0,"parameterNumber":2,"parameterNumberName":"U-component_of_WINDS"},"data":[0,0,0,0,0,0,0,0,0,0,0,0,0,0,0,0,0,0,0,0,0,0,0,0,0,0,0,0,0,0,0,0,0,0,0,0,0,0,0,0,0,0,0,0,0,0,0,0,0,0,0,0,0,0,0,0,0,0,-2.9183,-2.9182,0,-2.9136,-2.9136,-2.9135,-2.903,-2.9027,-2.9025,-2.9023,-2.8977,-2.8978,-2.8979,0,0,0,0,0,0,0,0,0,0,0,0,0,-2.9183,-2.9184,-2.9183,-2.9182,-2.9182,-2.9137,-2.9136,-2.9135,-2.903,-2.9027,-2.9025,-2.9022,-2.8977,-2.8978,-2.8979,0,0,0,0,0,0,0,0,0,0,0,0,0,-2.9165,-2.9184,-2.9183,-2.9124,-2.9118,-2.9137,-2.9136,-2.9135,-2.903,-2.9027,-2.9024,-2.9021,-2.8977,-2.8978,-2.8979,-2.9052,0,0,-2.8983,-2.8983,0,0,0,0,0,0,0,0,-2.9166,-2.9165,-2.9133,-2.9128,-2.9121,-2.9085,-2.9119,-2.9107,-2.9031,-2.9064,-2.9023,-2.9019,-2.9016,-2.9014,-2.9012,-2.905,-2.9048,-2.8983,-2.8984,-2.8984,-2.8985,0,0,0,0,0,0,0,-2.9167,-2.9166,-2.9164,-2.9133,-2.9126,-2.91,-2.9094,-2.9116,-2.9059,-2.9061,-2.9053,-2.9049,-2.9012,-2.9011,-2.9011,-2.9048,-2.8983,-2.8984,-2.8985,-2.8985,-2.9145,-2.9149,0,0,0,0,0,0,-2.9177,-2.9168,-2.9166,-2.9163,-2.9136,-2.9103,-2.9096,-2.91,-2.9058,-2.9049,-2.9052,-2.9044,-2.9011,-2.9009,-2.9009,-2.9092,-2.8984,-2.8985,-2.8986,-2.9142,-2.9146,-2.915,0,0,0,0,0,0,-2.9177,-2.9178,-2.9168,-2.9163,-2.916,-2.9107,-2.9112,-2.9101,-2.91,-2.9051,-2.9041,-2.9061,-2.9008,-2.9007,-2.9043,-2.9089,-2.8986,-2.8987,-2.9138,-2.9143,-2.9148,-2.9261,0,0,0,0,0,0,-2.9178,-2.9179,-2.9205,-2.9165,-2.9161,-2.9202,-2.9115,-2.9103,-2.9102,-2.9092,-2.9058,-2.9049,-2.9006,-2.9041,-2.9044,-2.9089,-2.8988,-2.9133,-2.914,-2.9146,-2.9252,-2.9269,-2.9283,0,0,0,0,0,-2.9178,-2.9238,-2.9207,-2.9207,-2.9193,-2.9205,-2.9203,-2.9151,-2.9106,-2.9133,-2.9102,-2.905,-2.9084,-2.9046,-2.9048,-2.9094,-2.913,-2.9138,-2.9146,-2.9245,-2.9266,-2.9283,0,0,0,0,0,0,-2.9285,-2.9232,-2.9196,-2.9245,-2.923,-2.9187,-2.9219,-2.9174,-2.9172,-2.9162,-2.9099,-2.9093,-2.9138,-2.9119,-2.9078,-2.9164,-2.9099,-2.9107,-2.9174,-2.9193,-2.9208,-2.9211,-2.8989,0,0,0,0,0,-2.9315,-2.9328,-2.9281,-2.9329,-2.9323,-2.9273,-2.9276,-2.9238,-2.922,-2.9214,-2.9185,-2.9171,-2.9178,-2.9185,-2.9189,-2.925,-2.9241,-2.9283,-2.9298,-2.9311,-2.9319,-2.9352,-2.937,-2.9176,-2.9176,-2.9176,0,0,-2.9375,-2.9348,-2.936,-2.935,-2.9334,-2.935,-2.9268,-2.9289,-2.9301,-2.9217,-2.9249,-2.9228,-2.9208,-2.9257,-2.9278,-2.9244,-2.9371,-2.9321,-2.9332,-2.9333,-2.9362,-2.938,-2.9397,-2.9181,-2.918,-2.9179,0,0,-2.9494,-2.9474,-2.9512,-2.9498,-2.9475,-2.9442,-2.9451,-2.9415,-2.9398,-2.9429,-2.9368,-2.9382,-2.9396,-2.9384,-2.938,-2.9498,-2.945,-2.9502,-2.9582,-2.9614,-2.963,-2.9643,-2.9686,-2.9702,-2.951,-2.951,-2.951,0,-2.9572,-2.9593,-2.9537,-2.9563,-2.9561,-2.9486,-2.9525,-2.9515,-2.9495,-2.9496,-2.9458,-2.9475,-2.9456,-2.9503,-2.9532,-2.9531,-2.9541,-2.9504,-2.9632,-2.9644,-2.9656,-2.9696,-2.9712,-2.9517,-2.9516,-2.9515,-2.9515,0,-2.9691,-2.9707,-2.9741,-2.9724,-2.9726,-2.9758,-2.9708,-2.9717,-2.968,-2.9651,-2.9685,-2.9661,-2.9659,-2.9667,-2.9631,-2.9709,-2.9689,-2.9643,-2.9576,-2.9682,-2.9719,-2.9734,-2.9526,-2.9523,-2.9521,-2.952,0,0,-2.9874,-2.9827,-2.984,-2.9832,-2.9803,-2.9815,-2.9845,-2.9843,-2.9853,-2.9843,-2.9867,-2.9882,-2.9839,-2.9835,-2.9797,-2.9826,-2.9922,-2.9775,-2.9774,-2.9804,-3.0008,-3.0044,-3.0062,-2.9891,-2.9893,-2.9895,-3.001,0,-2.9985,-3.0032,-2.9984,-3.0042,-3.0057,-2.9988,-3.0014,-3.0,-2.9974,-2.9985,-2.9956,-2.9968,-2.9911,-2.9908,-2.9933,-2.9905,-2.9962,-2.9896,-2.9913,-2.9915,-2.992,-3.0081,-3.0118,-3.0227,-3.0024,-3.0027,-3.0028,0,-3.0121,-3.0117,-3.0177,-3.0145,-3.015,-3.0174,-3.017,-3.018,-3.0164,-3.0143,-3.014,-3.0095,-3.0123,-3.0059,-3.0098,-3.0054,-3.0059,-3.0047,-3.005,-3.0049,-2.9978,-3.0085,-3.0261,-3.0277,-3.005,-3.0049,-3.0047,0,-3.0249,-3.0259,-3.0296,-3.0291,-3.0256,-3.0275,-3.0261,-3.0241,-3.0244,-3.0241,-3.0242,-3.0243,-3.0244,-3.0246,-3.0203,-3.016,-3.0248,-3.018,-3.0233,-3.0234,-3.0254,-3.0253,-3.0433,-3.0258,-3.0257,-3.0257,-3.0257,0,-3.0379,-3.0418,-3.0353,-3.0376,-3.0419,-3.0364,-3.0408,-3.0387,-3.037,-3.0389,-3.033,-3.0349,-3.029,-3.0303,-3.027,-3.0308,-3.0309,-3.0294,-3.0285,-3.0299,-3.0301,-3.0301,-3.0292,-3.0261,-3.026,-3.0259,-3.0259,0,-3.0528,-3.0487,-3.0522,-3.0486,-3.0478,-3.0511,-3.0481,-3.0501,-3.0473,-3.0497,-3.05,-3.0456,-3.0468,-3.0426,-3.0431,-3.0409,-3.0466,-3.0444,-3.0471,-3.0465,-3.052,-3.0516,-3.0706,-3.0728,-3.0539,-3.0541,-3.0543,0,-3.0613,-3.0642,-3.0609,-3.0617,-3.0607,-3.062,-3.0623,-3.0572,-3.0578,-3.0562,-3.0585,-3.0593,-3.0596,-3.0621,-3.059,-3.0594,-3.0572,-3.0639,-3.0572,-3.0587,-3.0574,-3.0573,-3.0576,-3.0652,-3.0655,-3.0656,-3.0658,0,-3.0769,-3.0748,-3.0754,-3.0754,-3.0759,-3.0757,-3.075,-3.0761,-3.0706,-3.0716,-3.0728,-3.0731,-3.0738,-3.0747,-3.0745,-3.0732,-3.0687,-3.0679,-3.0692,-3.0707,-3.0722,-3.0715,-3.0509,-3.0675,-3.0673,-3.0672,-3.0671,-3.067,-3.0889,-3.0912,-3.0893,-3.0902,-3.0892,-3.0888,-3.0906,-3.0881,-3.089,-3.0891,-3.086,-3.088,-3.0865,-3.0858,-3.085,-3.0865,-3.0834,-3.0852,-3.0857,-3.0862,-3.0872,-3.072,-3.0864,-3.0864,-3.0863,-3.0863,-3.0863,0,-3.1042,-3.1027,-3.1036,-3.1029,-3.1038,-3.0995,-3.0986,-3.0996,-3.1013,-3.1003,-3.1008,-3.1024,-3.1033,-3.1004,-3.1009,-3.1027,-3.1006,-3.103,-3.1028,-3.1026,-3.0899,-3.0887,-3.1047,-3.1047,-3.1047,-3.1047,-3.1047,-3.1047,-3.1122,-3.1159,-3.1136,-3.1168,-3.1152,-3.117,-3.117,-3.1166,-3.1158,-3.1178,-3.1185,-3.1166,-3.1149,-3.1153,-3.116,-3.1151,-3.1156,-3.1187,-3.1172,-3.1053,-3.1035,-3.1018,-3.1007,-3.1189,-3.1189,-3.1298,-3.1299,-3.1299]},{"header":{"parameterUnit":"m.s-1","parameterCategory":1,"la1":30.2991,"la2":30.254,"lo1":-89.0895,"lo2":-89.0444,"dy":0.0017,"dx":0.0017,"nx":28,"ny":28,"refTime":"2025-09-02T21:00:00:Z","depth":0,"parameterNumber":3,"parameterNumberName":"V-component_of_WINDS"},"data":[0,0,0,0,0,0,0,0,0,0,0,0,0,0,0,0,0,0,0,0,0,0,0,0,0,0,0,0,0,0,0,0,0,0,0,0,0,0,0,0,0,0,0,0,0,0,0,0,0,0,0,0,0,0,0,0,0,0,2.224,2.224,0,2.2216,2.2216,2.2216,2.2246,2.2247,2.2248,2.225,2.2218,2.2216,2.2214,0,0,0,0,0,0,0,0,0,0,0,0,0,2.2306,2.2305,2.224,2.224,2.224,2.2216,2.2216,2.2216,2.2246,2.2247,2.2249,2.225,2.2218,2.2216,2.2214,0,0,0,0,0,0,0,0,0,0,0,0,0,2.2279,2.2304,2.224,2.2252,2.2253,2.2216,2.2216,2.2216,2.2246,2.2247,2.2249,2.2251,2.2219,2.2216,2.2214,2.2162,0,0,2.2205,2.2204,0,0,0,0,0,0,0,0,2.2281,2.2277,2.2251,2.2251,2.2252,2.2236,2.2228,2.2197,2.2245,2.2248,2.225,2.2252,2.2222,2.2219,2.2211,2.2161,2.2159,2.2205,2.2203,2.2202,2.2201,0,0,0,0,0,0,0,2.2282,2.2278,2.223,2.225,2.2251,2.2257,2.2255,2.2222,2.2226,2.2248,2.225,2.2247,2.2223,2.2213,2.221,2.2159,2.2205,2.2202,2.2201,2.2199,2.2065,2.2063,0,0,0,0,0,0,2.2284,2.2279,2.2231,2.223,2.2271,2.2254,2.2252,2.2239,2.2226,2.2226,2.2246,2.2249,2.2217,2.2213,2.2209,2.2147,2.2202,2.2199,2.2197,2.2067,2.2065,2.2063,0,0,0,0,0,0,2.2285,2.2279,2.2232,2.2255,2.225,2.2251,2.2237,2.2238,2.2229,2.2225,2.2225,2.2236,2.2219,2.2213,2.2174,2.2146,2.2198,2.2195,2.2069,2.2066,2.2064,2.2023,0,0,0,0,0,0,2.2287,2.228,2.2261,2.2255,2.2248,2.2199,2.2235,2.2236,2.2225,2.2228,2.2215,2.2215,2.2219,2.2178,2.2171,2.2144,2.2193,2.2071,2.2068,2.2065,2.2027,2.2019,2.2013,0,0,0,0,0,2.2289,2.2249,2.226,2.2254,2.2226,2.2197,2.2194,2.2202,2.2222,2.2203,2.2201,2.2215,2.2152,2.2174,2.2166,2.2137,2.2073,2.2069,2.2065,2.203,2.2021,2.2013,0,0,0,0,0,0,2.2249,2.2248,2.226,2.2218,2.2208,2.2203,2.2178,2.2192,2.2174,2.2178,2.2187,2.2183,2.2142,2.2136,2.2161,2.2087,2.2115,2.2109,2.2092,2.2083,2.2076,2.2077,2.2191,0,0,0,0,0,2.2237,2.2216,2.2215,2.2177,2.2172,2.2176,2.2164,2.2172,2.2161,2.2156,2.2151,2.2137,2.2114,2.2099,2.2077,2.2028,2.2024,2.2004,2.1997,2.1991,2.1985,2.1957,2.1947,2.2049,2.2049,2.2049,0,0,2.2208,2.2205,2.219,2.2169,2.2162,2.2139,2.2172,2.2145,2.2127,2.2151,2.2114,2.211,2.2096,2.2051,2.2031,2.2045,2.1957,2.1986,2.1981,2.1978,2.1952,2.1942,2.1933,2.2046,2.2047,2.2047,0,0,2.2143,2.214,2.2108,2.2101,2.2091,2.2095,2.2087,2.2081,2.2079,2.2043,2.2061,2.2038,2.1999,2.1988,2.1977,2.1911,2.1923,2.1904,2.1866,2.1839,2.1831,2.1823,2.1798,2.1789,2.1898,2.1898,2.1898,0,2.2108,2.2075,2.2089,2.2061,2.2051,2.2075,2.2041,2.2033,2.2016,2.2007,2.2024,2.1976,2.1968,2.1921,2.1905,2.1896,2.1886,2.1904,2.1831,2.1824,2.1818,2.1793,2.1784,2.1896,2.1896,2.1896,2.1897,0,2.2031,2.2008,2.1983,2.1968,2.1956,2.1925,2.1933,2.1918,2.1927,2.1928,2.1891,2.1883,2.186,2.185,2.1858,2.1804,2.1812,2.183,2.1858,2.1805,2.1782,2.1773,2.1892,2.1893,2.1894,2.1895,0,0,2.1937,2.1933,2.1924,2.1917,2.191,2.1891,2.1861,2.1842,2.1828,2.1816,2.179,2.1757,2.1774,2.1762,2.1769,2.1746,2.1692,2.1766,2.1766,2.1751,2.1629,2.1614,2.1603,2.1702,2.17,2.1699,2.163,0,2.1871,2.1822,2.1835,2.1785,2.1763,2.1787,2.1761,2.1752,2.1753,2.1733,2.1733,2.1709,2.1735,2.1727,2.1706,2.1703,2.1667,2.1709,2.1674,2.1673,2.1674,2.1592,2.1575,2.151,2.1621,2.162,2.1619,0,2.1787,2.1774,2.1723,2.172,2.1711,2.1687,2.1671,2.1652,2.1643,2.1645,2.1633,2.1645,2.1614,2.1646,2.1602,2.163,2.1617,2.1614,2.1612,2.1606,2.164,2.1581,2.149,2.1479,2.1605,2.1606,2.1607,0,2.1721,2.1691,2.1657,2.1651,2.1647,2.163,2.1626,2.1619,2.1607,2.1592,2.1584,2.1565,2.1553,2.1538,2.1544,2.1566,2.1498,2.153,2.1496,2.1496,2.1478,2.1478,2.1381,2.1474,2.1475,2.1475,2.1475,0,2.1644,2.1611,2.1627,2.1606,2.1569,2.1584,2.1547,2.1547,2.154,2.1517,2.1537,2.1515,2.1526,2.1504,2.1509,2.147,2.1466,2.1465,2.1466,2.1461,2.1461,2.1451,2.1454,2.1472,2.1473,2.1473,2.1474,0,2.1563,2.1573,2.1536,2.1537,2.1536,2.1509,2.1508,2.1487,2.1491,2.1462,2.1455,2.146,2.1436,2.1441,2.1414,2.1417,2.1368,2.1376,2.1372,2.1373,2.1338,2.134,2.1228,2.1213,2.1318,2.1318,2.1317,0,2.1512,2.1487,2.1486,2.1473,2.147,2.1449,2.1437,2.1451,2.1438,2.1427,2.1406,2.1384,2.1367,2.1326,2.1326,2.1305,2.131,2.1273,2.1307,2.1303,2.1307,2.1307,2.1304,2.1265,2.1263,2.1262,2.1262,0,2.1419,2.1426,2.141,2.1395,2.1381,2.137,2.136,2.1348,2.1362,2.1345,2.1322,2.1309,2.1282,2.1259,2.124,2.1235,2.1249,2.1252,2.1242,2.1236,2.1233,2.1232,2.135,2.1253,2.1254,2.1255,2.1255,2.1255,2.1349,2.1329,2.1325,2.1306,2.1301,2.1292,2.1272,2.1275,2.1256,2.1237,2.1247,2.1219,2.121,2.1187,2.118,2.1157,2.1171,2.1158,2.1154,2.115,2.1144,2.124,2.1154,2.1154,2.1154,2.1155,2.1155,0,2.1256,2.1255,2.1238,2.1225,2.121,2.123,2.122,2.1205,2.1182,2.1174,2.1157,2.113,2.1108,2.1107,2.1087,2.1068,2.1074,2.1062,2.1062,2.106,2.1134,2.1143,2.1058,2.1058,2.1058,2.1058,2.1058,2.1058,2.1205,2.1171,2.1177,2.1141,2.114,2.1115,2.1108,2.1099,2.1093,2.1062,2.1045,2.1046,2.104,2.102,2.1,2.1,2.099,2.0975,2.0977,2.1045,2.1055,2.1064,2.1073,2.0973,2.0973,2.0905,2.0904,2.0904]}]]